sat.trackr.live / text

‹ back to catalog

STARLINK-5862

NORAD 55920 · 2023-037G

PAYLOAD ACTIVE UNKNOWN

§ Identity

Operator
Country
US
Launch date
2023-03-17
Launch site
AFWTR
Launch vehicle
Mass (kg)
RCS (m²)

Purposes: comms

External: N2YO · Heavens-Above · Gunter

§ Orbital elements

Epoch: 2026-05-25T02:50:45.184992Z

Period
96.11 min
Inclination
69.9995°
Eccentricity
0.0003027
Mean motion
14.98323655 rev/d
Perigee alt
570.0 km
Apogee alt
574.2 km
Semi-major
6,950.2 km
B*
4.4941e-5
RAAN
91.9488°
Arg perigee
267.4438°
Mean anomaly
92.6374°
Rev number
17,542

§ Raw data

STARLINK-58621 55920U 23037G   26145.11857853  .00000443  00000+0  44941-4 0  99982 55920  69.9995  91.9488 0003027 267.4438  92.6374 14.98323655175421

JSON: /api/v1/satellites/55920 · /tle

For live sub-satellite position, see the globe view (requires WebGL).

§ Visibility from observer

Set your observer location to see the next 7 days of passes ≥ 10°. The values pass through the URL so the page stays shareable.

No JS? Fill the form by hand. The geolocation button needs JavaScript.